Time,TemperatureF,DewpointF,PressureIn,WindDirection,WindDirectionDegrees,WindSpeedMPH,WindSpeedGustMPH,Humidity,HourlyPrecipIn,Conditions,Clouds,dailyrainin,SolarRadiationWatts/m^2,SoftwareType,DateUTC
2013-04-07 00:03:00,36.9,33.7,29.82,NW,315,3.4,6.9,88,0.00,RA,,0.00,0.0,WeatherDisplay:10.37,2013-04-07 05:03:00,
2013-04-07 00:08:00,36.8,33.6,29.82,NW,319,4.5,8.0,88,0.00,RA,,0.00,0.0,WeatherDisplay:10.37,2013-04-07 05:08:00,
2013-04-07 00:13:00,36.8,33.6,29.82,NNW,329,2.9,6.9,88,0.00,OVC,,0.00,0.0,WeatherDisplay:10.37,2013-04-07 05:13:00,
2013-04-07 00:18:00,36.8,33.6,29.82,NNW,328,3.0,6.0,88,0.00,OVC,,0.00,0.0,WeatherDisplay:10.37,2013-04-07 05:18:00,
2013-04-07 00:23:00,36.7,33.5,29.82,NW,314,1.9,3.5,88,0.00,OVC,,0.00,0.0,WeatherDisplay:10.37,2013-04-07 05:23:00,
2013-04-07 00:29:00,36.6,33.4,29.82,NW,317,4.2,7.0,88,0.00,OVC,,0.00,0.0,WeatherDisplay:10.37,2013-04-07 05:29:00,
2013-04-07 00:34:00,36.6,33.4,29.82,WNW,298,3.1,6.0,88,0.00,OVC,,0.00,0.0,WeatherDisplay:10.37,2013-04-07 05:34:00,
2013-04-07 00:39:00,36.6,33.4,29.83,WNW,297,4.4,6.0,88,0.00,OVC,,0.00,0.0,WeatherDisplay:10.37,2013-04-07 05:39:00,
2013-04-07 00:44:00,36.6,33.4,29.83,WNW,291,1.7,8.0,88,0.00,OVC,,0.00,0.0,WeatherDisplay:10.37,2013-04-07 05:44:00,
2013-04-07 00:50:00,36.6,33.4,29.83,WNW,302,4.4,7.0,88,0.00,OVC,,0.00,0.0,WeatherDisplay:10.37,2013-04-07 05:50:00,
2013-04-07 00:55:00,36.6,33.4,29.83,NW,323,3.1,5.8,88,0.00,OVC,,0.00,0.0,WeatherDisplay:10.37,2013-04-07 05:55:00,
2013-04-07 01:00:00,36.5,33.3,29.83,NW,325,3.6,7.0,88,0.00,OVC,,0.00,0.0,WeatherDisplay:10.37,2013-04-07 06:00:00,
2013-04-07 01:05:00,36.5,33.3,29.82,NW,308,1.8,4.0,88,0.00,OVC,,0.00,0.0,WeatherDisplay:10.37,2013-04-07 06:05:00,
2013-04-07 01:10:00,36.5,33.3,29.82,NW,313,2.7,5.0,88,0.00,OVC,,0.00,0.0,WeatherDisplay:10.37,2013-04-07 06:10:00,
2013-04-07 01:15:00,36.5,33.3,29.83,NW,316,2.0,7.0,88,0.00,OVC,OVC,0.00,0.0,WeatherDisplay:10.37,2013-04-07 06:15:00,
2013-04-07 01:21:00,36.4,33.2,29.83,NW,317,2.7,5.0,88,0.00,OVC,,0.00,0.0,WeatherDisplay:10.37,2013-04-07 06:21:00,
2013-04-07 01:26:00,36.4,33.2,29.83,NW,322,3.9,7.0,88,0.00,OVC,,0.00,0.0,WeatherDisplay:10.37,2013-04-07 06:26:00,
2013-04-07 01:31:00,36.4,33.2,29.83,NW,313,2.3,5.0,88,0.00,OVC,,0.00,0.0,WeatherDisplay:10.37,2013-04-07 06:31:00,
2013-04-07 01:36:00,36.3,33.1,29.83,NW,325,2.4,4.0,88,0.00,OVC,,0.00,0.0,WeatherDisplay:10.37,2013-04-07 06:36:00,
2013-04-07 01:41:00,36.2,33.0,29.83,NW,319,2.2,6.0,88,0.00,OVC,,0.00,0.0,WeatherDisplay:10.37,2013-04-07 06:41:00,
2013-04-07 01:46:00,36.3,33.1,29.83,NW,321,2.5,4.0,88,0.00,OVC,,0.00,0.0,WeatherDisplay:10.37,2013-04-07 06:46:00,
2013-04-07 01:51:00,36.2,32.7,29.83,NW,321,4.7,8.1,87,0.00,OVC,,0.00,0.0,WeatherDisplay:10.37,2013-04-07 06:51:00,
2013-04-07 01:56:00,36.2,32.7,29.83,NW,323,3.1,7.0,87,0.00,OVC,,0.00,0.0,WeatherDisplay:10.37,2013-04-07 06:56:00,
2013-04-07 02:02:00,36.2,32.7,29.84,WNW,300,2.3,5.0,87,0.00,OVC,,0.00,0.0,WeatherDisplay:10.37,2013-04-07 07:02:00,
2013-04-07 02:07:00,36.2,32.7,29.84,WNW,290,3.1,5.8,87,0.00,OVC,,0.00,0.0,WeatherDisplay:10.37,2013-04-07 07:07:00,
2013-04-07 02:12:00,36.2,32.7,29.84,NW,322,2.5,5.0,87,0.00,OVC,,0.00,0.0,WeatherDisplay:10.37,2013-04-07 07:12:00,
2013-04-07 02:17:00,36.2,32.7,29.84,NW,308,3.0,5.0,87,0.00,OVC,,0.00,0.0,WeatherDisplay:10.37,2013-04-07 07:17:00,
2013-04-07 02:22:00,36.2,32.7,29.84,NNW,329,2.2,5.0,87,0.00,OVC,,0.00,0.0,WeatherDisplay:10.37,2013-04-07 07:22:00,
2013-04-07 02:27:00,36.1,32.6,29.83,WNW,299,2.6,4.6,87,0.00,OVC,,0.00,0.0,WeatherDisplay:10.37,2013-04-07 07:27:00,
2013-04-07 02:32:00,36.0,32.5,29.83,NW,323,3.8,7.0,87,0.00,OVC,,0.00,0.0,WeatherDisplay:10.37,2013-04-07 07:32:00,
2013-04-07 02:38:00,36.0,32.5,29.84,WNW,302,2.5,6.0,87,0.00,OVC,,0.00,0.0,WeatherDisplay:10.37,2013-04-07 07:38:00,
2013-04-07 02:43:00,35.9,32.7,29.84,NW,319,2.2,5.0,88,0.00,OVC,,0.00,0.0,WeatherDisplay:10.37,2013-04-07 07:43:00,
2013-04-07 02:48:00,35.8,32.3,29.84,NNW,327,2.7,5.0,87,0.00,OVC,,0.00,0.0,WeatherDisplay:10.37,2013-04-07 07:48:00,
2013-04-07 02:53:00,35.8,32.3,29.83,NW,317,1.8,3.5,87,0.00,OVC,,0.00,0.0,WeatherDisplay:10.37,2013-04-07 07:53:00,
2013-04-07 02:58:00,35.8,32.6,29.83,NNW,334,2.9,4.0,88,0.00,OVC,,0.00,0.0,WeatherDisplay:10.37,2013-04-07 07:58:00,
2013-04-07 03:03:00,35.8,32.3,29.84,NW,309,2.6,4.0,87,0.00,OVC,,0.00,0.0,WeatherDisplay:10.37,2013-04-07 08:03:00,
2013-04-07 03:08:00,35.8,32.3,29.84,NW,316,0.9,4.0,87,0.00,OVC,,0.00,0.0,WeatherDisplay:10.37,2013-04-07 08:08:00,
2013-04-07 03:13:00,35.8,32.3,29.84,NNW,344,3.3,6.0,87,0.00,OVC,,0.00,0.0,WeatherDisplay:10.37,2013-04-07 08:13:00,
2013-04-07 03:18:00,35.8,32.3,29.84,NW,311,4.6,8.1,87,0.00,OVC,,0.00,0.0,WeatherDisplay:10.37,2013-04-07 08:18:00,
2013-04-07 03:23:00,35.8,32.3,29.84,NW,323,3.9,6.0,87,0.00,OVC,,0.00,0.0,WeatherDisplay:10.37,2013-04-07 08:23:00,
2013-04-07 03:28:00,35.8,32.3,29.84,NNW,344,3.5,7.0,87,0.00,OVC,,0.00,0.0,WeatherDisplay:10.37,2013-04-07 08:28:00,
2013-04-07 03:33:00,35.7,32.2,29.84,NW,315,4.9,9.2,87,0.00,OVC,,0.00,0.0,WeatherDisplay:10.37,2013-04-07 08:33:00,
2013-04-07 03:38:00,35.7,31.9,29.84,NW,313,4.1,7.0,86,0.00,OVC,,0.00,0.0,WeatherDisplay:10.37,2013-04-07 08:38:00,
2013-04-07 03:43:00,35.7,31.9,29.84,NNW,330,3.9,8.1,86,0.00,OVC,,0.00,0.0,WeatherDisplay:10.37,2013-04-07 08:43:00,
2013-04-07 03:48:00,35.7,31.9,29.84,NNE,19,4.2,8.0,86,0.00,OVC,,0.00,0.0,WeatherDisplay:10.37,2013-04-07 08:48:00,
2013-04-07 03:53:00,35.7,31.9,29.85,NNW,329,3.5,8.1,86,0.00,OVC,,0.00,0.0,WeatherDisplay:10.37,2013-04-07 08:53:00,
2013-04-07 03:58:00,35.7,31.6,29.85,NW,324,2.8,8.1,85,0.00,OVC,,0.00,0.0,WeatherDisplay:10.37,2013-04-07 08:58:00,
2013-04-07 04:03:00,35.7,31.6,29.85,NNW,331,5.6,8.1,85,0.00,OVC,,0.00,0.0,WeatherDisplay:10.37,2013-04-07 09:03:00,
2013-04-07 04:08:00,35.7,31.6,29.85,NW,319,4.6,6.0,85,0.00,OVC,,0.00,0.0,WeatherDisplay:10.37,2013-04-07 09:08:00,
2013-04-07 04:13:00,35.7,31.6,29.85,NW,316,3.5,6.0,85,0.00,OVC,,0.00,0.0,WeatherDisplay:10.37,2013-04-07 09:13:00,
2013-04-07 04:18:00,35.7,31.6,29.86,NW,319,3.8,8.1,85,0.00,OVC,,0.00,0.0,WeatherDisplay:10.37,2013-04-07 09:18:00,
2013-04-07 04:23:00,35.7,31.3,29.86,NW,315,2.6,6.9,84,0.00,OVC,,0.00,0.0,WeatherDisplay:10.37,2013-04-07 09:23:00,
2013-04-07 04:28:00,35.7,31.3,29.86,NW,309,6.9,11.0,84,0.00,OVC,,0.00,0.0,WeatherDisplay:10.37,2013-04-07 09:28:00,
2013-04-07 04:33:00,35.6,30.9,29.86,North,355,3.6,6.9,83,0.00,OVC,,0.00,0.0,WeatherDisplay:10.37,2013-04-07 09:33:00,
2013-04-07 04:38:00,35.6,30.9,29.86,NNW,341,4.4,6.9,83,0.00,OVC,,0.00,0.0,WeatherDisplay:10.37,2013-04-07 09:38:00,
2013-04-07 04:43:00,35.5,31.1,29.86,NW,321,2.0,6.0,84,0.00,OVC,,0.00,0.0,WeatherDisplay:10.37,2013-04-07 09:43:00,
2013-04-07 04:48:00,35.6,30.9,29.86,NNW,344,4.2,6.0,83,0.00,OVC,,0.00,0.0,WeatherDisplay:10.37,2013-04-07 09:48:00,
2013-04-07 04:54:00,35.4,30.8,29.86,NNW,338,2.9,5.0,83,0.00,OVC,,0.00,0.0,WeatherDisplay:10.37,2013-04-07 09:54:00,
2013-04-07 04:59:00,35.4,30.8,29.87,North,355,1.6,4.0,83,0.00,OVC,,0.00,0.0,WeatherDisplay:10.37,2013-04-07 09:59:00,
2013-04-07 05:04:00,35.4,30.8,29.87,NNW,332,1.5,5.8,83,0.00,OVC,,0.00,0.0,WeatherDisplay:10.37,2013-04-07 10:04:00,
2013-04-07 05:10:00,35.5,30.8,29.87,NW,318,4.6,10.4,83,0.00,OVC,,0.00,0.0,WeatherDisplay:10.37,2013-04-07 10:10:00,
2013-04-07 05:15:00,35.5,30.5,29.88,NW,316,3.5,5.0,82,0.00,OVC,,0.00,0.0,WeatherDisplay:10.37,2013-04-07 10:15:00,
2013-04-07 05:20:00,35.5,30.5,29.88,NNW,334,4.9,7.0,82,0.00,OVC,,0.00,0.0,WeatherDisplay:10.37,2013-04-07 10:20:00,
2013-04-07 05:25:00,35.5,30.8,29.88,NNW,327,3.9,7.0,83,0.00,OVC,,0.00,0.0,WeatherDisplay:10.37,2013-04-07 10:25:00,
2013-04-07 05:30:00,35.5,30.8,29.88,NNW,335,3.0,6.0,83,0.00,OVC,,0.00,0.0,WeatherDisplay:10.37,2013-04-07 10:30:00,
2013-04-07 05:35:00,35.5,30.8,29.88,NW,308,3.4,5.0,83,0.00,OVC,,0.00,0.0,WeatherDisplay:10.37,2013-04-07 10:35:00,
2013-04-07 05:40:00,35.4,30.5,29.89,NW,320,5.0,12.0,82,0.00,OVC,OVC,0.00,0.0,WeatherDisplay:10.37,2013-04-07 10:40:00,
2013-04-07 05:45:00,35.3,30.4,29.89,NW,320,3.0,8.0,82,0.00,OVC,OVC,0.00,0.0,WeatherDisplay:10.37,2013-04-07 10:45:00,
2013-04-07 05:51:00,35.2,30.3,29.89,NNW,338,1.7,5.0,82,0.00,OVC,,0.00,0.0,WeatherDisplay:10.37,2013-04-07 10:51:00,
2013-04-07 05:57:00,35.2,30.3,29.89,NW,315,2.7,7.0,82,0.00,OVC,,0.00,0.0,WeatherDisplay:10.37,2013-04-07 10:57:00,
2013-04-07 06:02:00,35.1,30.2,29.89,NNW,336,1.9,3.5,82,0.00,OVC,,0.00,0.0,WeatherDisplay:10.37,2013-04-07 11:02:00,
2013-04-07 06:07:00,35.1,30.2,29.89,NW,321,3.0,5.0,82,0.00,OVC,,0.00,0.0,WeatherDisplay:10.37,2013-04-07 11:07:00,
2013-04-07 06:13:00,35.1,30.2,29.89,North,355,1.7,4.0,82,0.00,OVC,,0.00,0.0,WeatherDisplay:10.37,2013-04-07 11:13:00,
2013-04-07 06:18:00,35.0,30.1,29.89,NNW,339,3.9,7.0,82,0.00,OVC,,0.00,0.0,WeatherDisplay:10.37,2013-04-07 11:18:00,
2013-04-07 06:23:00,35.0,30.1,29.90,NNW,329,2.8,5.0,82,0.00,OVC,,0.00,0.0,WeatherDisplay:10.37,2013-04-07 11:23:00,
2013-04-07 06:28:00,35.1,30.2,29.90,NNW,336,3.2,6.0,82,0.00,OVC,,0.00,0.0,WeatherDisplay:10.37,2013-04-07 11:28:00,
2013-04-07 06:33:00,35.0,30.1,29.90,NW,314,2.1,4.0,82,0.00,OVC,,0.00,0.0,WeatherDisplay:10.37,2013-04-07 11:33:00,
2013-04-07 06:38:00,35.0,30.1,29.90,NW,312,2.9,6.0,82,0.00,OVC,,0.00,0.0,WeatherDisplay:10.37,2013-04-07 11:38:00,
2013-04-07 06:44:00,35.0,29.8,29.90,NNW,329,4.0,6.0,81,0.00,OVC,,0.00,0.0,WeatherDisplay:10.37,2013-04-07 11:44:00,
2013-04-07 06:49:00,34.8,29.9,29.90,North,355,2.5,6.0,82,0.00,OVC,,0.00,0.0,WeatherDisplay:10.37,2013-04-07 11:49:00,
2013-04-07 06:55:00,34.7,29.8,29.90,North,360,0.7,2.3,82,0.00,OVC,,0.00,5.0,WeatherDisplay:10.37,2013-04-07 11:55:00,
2013-04-07 07:01:00,34.8,29.9,29.91,NW,323,2.9,4.0,82,0.00,OVC,,0.00,7.0,WeatherDisplay:10.37,2013-04-07 12:01:00,
2013-04-07 07:06:00,34.9,30.0,29.91,NW,325,2.2,4.0,82,0.00,OVC,,0.00,9.0,WeatherDisplay:10.37,2013-04-07 12:06:00,
2013-04-07 07:12:00,34.8,29.9,29.91,NW,325,4.1,6.9,82,0.00,OVC,,0.00,12.0,WeatherDisplay:10.37,2013-04-07 12:12:00,
2013-04-07 07:17:00,34.8,29.9,29.91,NW,324,0.3,3.5,82,0.00,OVC,,0.00,16.0,WeatherDisplay:10.37,2013-04-07 12:17:00,
2013-04-07 07:23:00,34.8,29.9,29.91,NW,321,2.0,4.0,82,0.00,OVC,,0.00,21.0,WeatherDisplay:10.37,2013-04-07 12:23:00,
2013-04-07 07:28:00,34.8,29.6,29.91,North,360,3.0,4.6,81,0.00,OVC,,0.00,30.0,WeatherDisplay:10.37,2013-04-07 12:28:00,
2013-04-07 07:34:00,34.7,29.5,29.91,North,360,0.5,2.3,81,0.00,OVC,,0.00,33.0,WeatherDisplay:10.37,2013-04-07 12:34:00,
2013-04-07 07:39:00,34.8,29.9,29.91,NNW,341,2.5,4.6,82,0.00,OVC,,0.00,44.0,WeatherDisplay:10.37,2013-04-07 12:39:00,
2013-04-07 07:45:00,34.9,29.7,29.92,NW,317,2.9,4.0,81,0.00,OVC,,0.00,42.0,WeatherDisplay:10.37,2013-04-07 12:45:00,
2013-04-07 07:50:00,35.1,29.8,29.93,NW,317,2.0,8.0,81,0.00,OVC,OVC,0.00,42.0,WeatherDisplay:10.37,2013-04-07 12:50:00,
2013-04-07 07:55:00,35.1,29.8,29.93,NW,319,3.0,7.0,81,0.00,OVC,OVC,0.00,49.0,WeatherDisplay:10.37,2013-04-07 12:55:00,
2013-04-07 08:01:00,35.0,29.8,29.92,NNW,335,1.6,4.0,81,0.00,OVC,,0.00,51.0,WeatherDisplay:10.37,2013-04-07 13:01:00,
2013-04-07 08:06:00,35.0,29.8,29.93,NW,311,2.5,7.0,81,0.00,OVC,,0.00,54.0,WeatherDisplay:10.37,2013-04-07 13:06:00,
2013-04-07 08:11:00,35.2,29.6,29.92,NW,323,2.4,5.0,80,0.00,OVC,,0.00,65.0,WeatherDisplay:10.37,2013-04-07 13:11:00,
2013-04-07 08:16:00,35.1,29.6,29.93,North,355,2.2,4.0,80,0.00,OVC,,0.00,77.0,WeatherDisplay:10.37,2013-04-07 13:16:00,
2013-04-07 08:21:00,35.1,29.6,29.93,NNE,21,2.5,3.5,80,0.00,OVC,,0.00,79.0,WeatherDisplay:10.37,2013-04-07 13:21:00,
2013-04-07 08:26:00,35.3,29.7,29.93,WNW,299,1.5,4.6,80,0.00,OVC,,0.00,90.0,WeatherDisplay:10.37,2013-04-07 13:26:00,
2013-04-07 08:31:00,35.4,29.8,29.93,North,350,3.0,6.0,80,0.00,OVC,,0.00,104.0,WeatherDisplay:10.37,2013-04-07 13:31:00,
2013-04-07 08:36:00,35.5,29.6,29.93,NNW,340,0.7,3.5,79,0.00,OVC,,0.00,93.0,WeatherDisplay:10.37,2013-04-07 13:36:00,
2013-04-07 08:41:00,35.6,29.7,29.93,NW,326,2.6,4.6,79,0.00,OVC,,0.00,91.0,WeatherDisplay:10.37,2013-04-07 13:41:00,
2013-04-07 08:46:00,35.7,29.8,29.93,NNW,327,1.6,3.5,79,0.00,OVC,,0.00,107.0,WeatherDisplay:10.37,2013-04-07 13:46:00,
2013-04-07 08:51:00,35.7,29.8,29.93,North,5,1.9,5.0,79,0.00,OVC,,0.00,125.0,WeatherDisplay:10.37,2013-04-07 13:51:00,
2013-04-07 08:57:00,35.8,29.9,29.93,North,355,2.2,5.8,79,0.00,OVC,,0.00,118.0,WeatherDisplay:10.37,2013-04-07 13:57:00,
2013-04-07 09:02:00,35.9,30.0,29.93,NNW,338,2.4,4.0,79,0.00,OVC,,0.00,125.0,WeatherDisplay:10.37,2013-04-07 14:02:00,
2013-04-07 09:08:00,36.0,29.8,29.93,WNW,296,3.8,5.0,78,0.00,OVC,,0.00,137.0,WeatherDisplay:10.37,2013-04-07 14:08:00,
2013-04-07 09:13:00,35.9,29.7,29.92,WNW,296,1.5,3.5,78,0.00,OVC,,0.00,134.0,WeatherDisplay:10.37,2013-04-07 14:13:00,
2013-04-07 09:18:00,36.0,29.8,29.93,NW,304,1.0,2.3,78,0.00,OVC,,0.00,137.0,WeatherDisplay:10.37,2013-04-07 14:18:00,
2013-04-07 09:23:00,36.1,29.9,29.93,NNW,345,1.8,4.6,78,0.00,OVC,,0.00,144.0,WeatherDisplay:10.37,2013-04-07 14:23:00,
2013-04-07 09:28:00,36.2,30.0,29.93,NE,53,2.5,4.6,78,0.00,OVC,,0.00,156.0,WeatherDisplay:10.37,2013-04-07 14:28:00,
2013-04-07 09:33:00,36.0,29.5,29.93,NNE,24,0.1,2.3,77,0.00,OVC,,0.00,172.0,WeatherDisplay:10.37,2013-04-07 14:33:00,
2013-04-07 09:38:00,36.2,30.0,29.93,North,360,1.2,2.3,78,0.00,OVC,,0.00,163.0,WeatherDisplay:10.37,2013-04-07 14:38:00,
2013-04-07 09:43:00,36.4,29.9,29.93,NNW,343,0.4,3.0,77,0.00,OVC,,0.00,155.0,WeatherDisplay:10.37,2013-04-07 14:43:00,
2013-04-07 09:48:00,36.6,30.1,29.93,NNW,346,1.3,3.5,77,0.00,OVC,,0.00,186.0,WeatherDisplay:10.37,2013-04-07 14:48:00,
2013-04-07 09:53:00,36.5,29.7,29.93,NW,317,0.9,3.5,76,0.00,OVC,,0.00,185.0,WeatherDisplay:10.37,2013-04-07 14:53:00,
2013-04-07 09:58:00,36.5,30.0,29.93,NW,317,2.3,4.0,77,0.00,OVC,,0.00,200.0,WeatherDisplay:10.37,2013-04-07 14:58:00,
2013-04-07 10:03:00,36.5,30.0,29.94,NW,317,1.2,3.5,77,0.00,OVC,,0.00,200.0,WeatherDisplay:10.37,2013-04-07 15:03:00,
2013-04-07 10:08:00,36.4,29.9,29.94,NW,317,1.3,3.5,77,0.00,OVC,,0.00,202.0,WeatherDisplay:10.37,2013-04-07 15:08:00,
2013-04-07 10:13:00,36.6,30.1,29.94,NW,317,0.2,1.2,77,0.00,OVC,,0.00,193.0,WeatherDisplay:10.37,2013-04-07 15:13:00,
2013-04-07 10:18:00,36.7,30.2,29.94,NW,317,0.0,0.0,77,0.00,OVC,,0.00,209.0,WeatherDisplay:10.37,2013-04-07 15:18:00,
2013-04-07 10:24:00,37.0,30.1,29.94,SW,222,2.4,4.0,76,0.00,OVC,,0.00,221.0,WeatherDisplay:10.37,2013-04-07 15:24:00,
2013-04-07 10:30:00,36.9,30.0,29.94,South,186,1.9,3.5,76,0.00,OVC,,0.00,204.0,WeatherDisplay:10.37,2013-04-07 15:30:00,
2013-04-07 10:35:00,37.0,30.5,29.94,South,186,1.9,4.0,77,0.00,OVC,,0.00,220.0,WeatherDisplay:10.37,2013-04-07 15:35:00,
2013-04-07 10:40:00,36.9,30.0,29.95,South,183,1.0,4.0,76,0.00,OVC,OVC,0.00,264.0,WeatherDisplay:10.37,2013-04-07 15:40:00,
2013-04-07 10:46:00,36.9,30.0,29.94,South,181,2.0,5.0,76,0.00,OVC,OVC,0.00,258.0,WeatherDisplay:10.37,2013-04-07 15:46:00,
2013-04-07 10:51:00,37.7,30.8,29.95,South,178,2.2,3.5,76,0.00,OVC,,0.00,315.0,WeatherDisplay:10.37,2013-04-07 15:51:00,
2013-04-07 10:56:00,37.8,30.6,29.95,SW,215,2.7,4.0,75,0.00,OVC,,0.00,327.0,WeatherDisplay:10.37,2013-04-07 15:56:00,
2013-04-07 11:02:00,38.5,30.9,29.95,SSW,194,2.1,3.0,74,0.00,OVC,,0.00,323.0,WeatherDisplay:10.37,2013-04-07 16:02:00,
2013-04-07 11:07:00,38.1,30.2,29.95,SSW,194,1.5,3.5,73,0.00,OVC,,0.00,322.0,WeatherDisplay:10.37,2013-04-07 16:07:00,
2013-04-07 11:12:00,38.2,30.6,29.95,SW,215,2.2,4.0,74,0.00,OVC,,0.00,341.0,WeatherDisplay:10.37,2013-04-07 16:12:00,
2013-04-07 11:18:00,38.4,30.8,29.96,SW,221,2.0,3.5,74,0.00,OVC,,0.00,341.0,WeatherDisplay:10.37,2013-04-07 16:18:00,
2013-04-07 11:23:00,38.5,30.6,29.96,SE,145,1.7,3.0,73,0.00,OVC,,0.00,332.0,WeatherDisplay:10.37,2013-04-07 16:23:00,
2013-04-07 11:28:00,39.2,31.3,29.96,SSE,168,2.6,4.0,73,0.00,OVC,,0.00,339.0,WeatherDisplay:10.37,2013-04-07 16:28:00,
2013-04-07 11:33:00,38.3,30.4,29.96,ESE,123,1.2,2.3,73,0.00,OVC,,0.00,387.0,WeatherDisplay:10.37,2013-04-07 16:33:00,
2013-04-07 11:38:00,38.5,30.9,29.96,ESE,123,0.0,1.2,74,0.00,OVC,,0.00,397.0,WeatherDisplay:10.37,2013-04-07 16:38:00,
2013-04-07 11:43:00,39.3,31.4,29.95,South,170,3.2,4.6,73,0.00,OVC,,0.00,399.0,WeatherDisplay:10.37,2013-04-07 16:43:00,
2013-04-07 11:48:00,39.6,31.3,29.96,SSE,147,3.7,5.0,72,0.00,OVC,,0.00,420.0,WeatherDisplay:10.37,2013-04-07 16:48:00,
2013-04-07 11:54:00,39.2,30.9,29.95,SW,221,0.3,2.3,72,0.00,OVC,,0.00,371.0,WeatherDisplay:10.37,2013-04-07 16:54:00,
2013-04-07 11:59:00,38.9,30.6,29.95,SW,221,1.6,3.5,72,0.00,OVC,,0.00,401.0,WeatherDisplay:10.37,2013-04-07 16:59:00,
2013-04-07 12:05:00,39.4,31.5,29.95,South,178,2.3,4.6,73,0.00,OVC,,0.00,439.0,WeatherDisplay:10.37,2013-04-07 17:05:00,
2013-04-07 12:10:00,39.9,31.6,29.94,SSE,164,3.1,4.0,72,0.00,OVC,,0.00,490.0,WeatherDisplay:10.37,2013-04-07 17:10:00,
2013-04-07 12:15:00,40.3,31.6,29.94,South,169,1.2,3.5,71,0.00,OVC,,0.00,489.0,WeatherDisplay:10.37,2013-04-07 17:15:00,
2013-04-07 12:20:00,40.7,32.3,29.94,SSW,200,1.0,4.0,72,0.00,OVC,OVC,0.00,454.0,WeatherDisplay:10.37,2013-04-07 17:20:00,
2013-04-07 12:25:00,40.9,32.2,29.94,SW,235,5.0,7.0,71,0.00,OVC,OVC,0.00,478.0,WeatherDisplay:10.37,2013-04-07 17:25:00,
2013-04-07 12:31:00,41.1,32.1,29.93,West,263,3.1,5.0,70,0.00,OVC,,0.00,506.0,WeatherDisplay:10.37,2013-04-07 17:31:00,
2013-04-07 12:37:00,41.1,31.7,29.93,South,182,1.1,3.5,69,0.00,OVC,,0.00,599.0,WeatherDisplay:10.37,2013-04-07 17:37:00,
2013-04-07 12:42:00,42.0,32.6,29.93,SSE,153,2.9,5.0,69,0.00,OVC,,0.00,935.0,WeatherDisplay:10.37,2013-04-07 17:42:00,
2013-04-07 12:47:00,42.4,32.6,29.93,SSW,194,5.7,7.0,68,0.00,OVC,,0.00,984.0,WeatherDisplay:10.37,2013-04-07 17:47:00,
2013-04-07 12:52:00,42.7,32.1,29.94,SW,221,4.6,6.0,66,0.00,OVC,,0.00,439.0,WeatherDisplay:10.37,2013-04-07 17:52:00,
2013-04-07 12:58:00,41.9,31.7,29.94,SW,215,3.5,5.8,67,0.00,OVC,,0.00,390.0,WeatherDisplay:10.37,2013-04-07 17:58:00,
2013-04-07 13:03:00,41.6,32.2,29.93,SSE,162,3.5,5.0,69,0.00,OVC,,0.00,715.0,WeatherDisplay:10.37,2013-04-07 18:03:00,
2013-04-07 13:08:00,42.7,33.2,29.93,SSE,165,4.3,7.0,69,0.00,OVC,,0.00,1002.0,WeatherDisplay:10.37,2013-04-07 18:08:00,
2013-04-07 13:13:00,43.5,32.9,29.93,SSE,160,4.1,6.0,66,0.00,OVC,,0.00,891.0,WeatherDisplay:10.37,2013-04-07 18:13:00,
2013-04-07 13:18:00,44.1,33.5,29.92,SSW,196,3.4,6.9,66,0.00,OVC,,0.00,884.0,WeatherDisplay:10.37,2013-04-07 18:18:00,
2013-04-07 13:23:00,43.3,32.7,29.92,SSW,211,3.6,6.0,66,0.00,OVC,,0.00,842.0,WeatherDisplay:10.37,2013-04-07 18:23:00,
2013-04-07 13:28:00,43.8,33.2,29.92,South,180,3.8,11.5,66,0.00,OVC,,0.00,810.0,WeatherDisplay:10.37,2013-04-07 18:28:00,
2013-04-07 13:33:00,44.8,34.1,29.92,SE,144,1.5,5.0,66,0.00,OVC,,0.00,775.0,WeatherDisplay:10.37,2013-04-07 18:33:00,
2013-04-07 13:38:00,44.3,32.9,29.92,SSE,158,3.8,6.9,64,0.00,OVC,,0.00,847.0,WeatherDisplay:10.37,2013-04-07 18:38:00,
2013-04-07 13:43:00,43.8,32.8,29.92,South,176,7.0,10.4,65,0.00,OVC,,0.00,958.0,WeatherDisplay:10.37,2013-04-07 18:43:00,
2013-04-07 13:48:00,44.6,33.9,29.92,South,171,6.2,9.0,66,0.00,OVC,,0.00,900.0,WeatherDisplay:10.37,2013-04-07 18:48:00,
2013-04-07 13:53:00,44.2,33.6,29.92,South,173,2.6,5.8,66,0.00,OVC,,0.00,802.0,WeatherDisplay:10.37,2013-04-07 18:53:00,
2013-04-07 13:58:00,44.2,33.6,29.92,SW,234,6.0,9.2,66,0.00,OVC,,0.00,777.0,WeatherDisplay:10.37,2013-04-07 18:58:00,
2013-04-07 14:03:00,43.7,33.5,29.92,SSE,164,5.3,9.2,67,0.00,OVC,,0.00,817.0,WeatherDisplay:10.37,2013-04-07 19:03:00,
2013-04-07 14:08:00,43.5,32.9,29.91,South,188,5.5,9.2,66,0.00,OVC,,0.00,810.0,WeatherDisplay:10.37,2013-04-07 19:08:00,
2013-04-07 14:13:00,44.3,34.0,29.91,ENE,76,2.0,3.5,67,0.00,OVC,,0.00,814.0,WeatherDisplay:10.37,2013-04-07 19:13:00,
2013-04-07 14:18:00,45.3,34.6,29.91,East,86,2.6,4.6,66,0.00,OVC,,0.00,547.0,WeatherDisplay:10.37,2013-04-07 19:18:00,
2013-04-07 14:24:00,45.6,34.5,29.91,SE,144,5.3,8.1,65,0.00,OVC,,0.00,796.0,WeatherDisplay:10.37,2013-04-07 19:24:00,
2013-04-07 14:30:00,45.1,33.2,29.91,SE,128,1.5,3.5,63,0.00,OVC,,0.00,448.0,WeatherDisplay:10.37,2013-04-07 19:30:00,
2013-04-07 14:35:00,44.9,33.8,29.90,South,184,3.4,9.0,65,0.00,OVC,,0.00,492.0,WeatherDisplay:10.37,2013-04-07 19:35:00,
2013-04-07 14:40:00,44.3,33.6,29.90,South,180,7.0,12.0,66,0.00,OVC,OVC,0.00,464.0,WeatherDisplay:10.37,2013-04-07 19:40:00,
2013-04-07 14:45:00,43.5,33.3,29.90,South,186,7.0,12.0,67,0.00,OVC,OVC,0.00,473.0,WeatherDisplay:10.37,2013-04-07 19:45:00,
2013-04-07 14:50:00,43.3,33.5,29.90,South,183,5.0,9.0,68,0.00,OVC,OVC,0.00,443.0,WeatherDisplay:10.37,2013-04-07 19:50:00,
2013-04-07 14:55:00,43.4,33.6,29.90,South,177,2.0,7.0,68,0.00,OVC,OVC,0.00,448.0,WeatherDisplay:10.37,2013-04-07 19:55:00,
2013-04-07 15:01:00,43.2,33.7,29.90,South,181,4.1,7.0,69,0.00,OVC,,0.00,431.0,WeatherDisplay:10.37,2013-04-07 20:01:00,
2013-04-07 15:06:00,43.9,34.4,29.89,South,185,0.9,4.0,69,0.00,BKN,,0.00,573.0,WeatherDisplay:10.37,2013-04-07 20:06:00,
2013-04-07 15:11:00,44.5,34.2,29.89,South,179,4.1,7.0,67,0.00,BKN,,0.00,606.0,WeatherDisplay:10.37,2013-04-07 20:11:00,
2013-04-07 15:16:00,45.0,35.1,29.89,South,190,1.2,3.5,68,0.00,BKN,,0.00,468.0,WeatherDisplay:10.37,2013-04-07 20:16:00,
2013-04-07 15:22:00,44.6,33.9,29.88,SSW,207,3.5,5.0,66,0.00,BKN,,0.00,670.0,WeatherDisplay:10.37,2013-04-07 20:22:00,
2013-04-07 15:27:00,44.7,34.0,29.88,SSE,163,2.5,6.0,66,0.00,BKN,,0.00,366.0,WeatherDisplay:10.37,2013-04-07 20:27:00,
2013-04-07 15:33:00,45.2,34.5,29.88,SSE,165,5.1,10.4,66,0.00,BKN,,0.00,601.0,WeatherDisplay:10.37,2013-04-07 20:33:00,
2013-04-07 15:38:00,44.3,34.0,29.87,SSE,157,2.7,5.0,67,0.00,BKN,,0.00,587.0,WeatherDisplay:10.37,2013-04-07 20:38:00,
2013-04-07 15:43:00,45.1,34.8,29.87,SE,124,3.0,6.0,67,0.00,BKN,,0.00,552.0,WeatherDisplay:10.37,2013-04-07 20:43:00,
2013-04-07 15:48:00,45.4,34.7,29.87,ENE,71,4.5,8.1,66,0.00,BKN,,0.00,508.0,WeatherDisplay:10.37,2013-04-07 20:48:00,
2013-04-07 15:53:00,45.5,34.4,29.86,South,173,3.9,7.0,65,0.00,BKN,,0.00,462.0,WeatherDisplay:10.37,2013-04-07 20:53:00,
2013-04-07 15:59:00,45.8,35.1,29.86,West,259,1.8,5.8,66,0.00,BKN,,0.00,404.0,WeatherDisplay:10.37,2013-04-07 20:59:00,
2013-04-07 16:04:00,46.0,35.3,29.86,ESE,109,2.0,4.0,66,0.00,CLR,,0.00,452.0,WeatherDisplay:10.37,2013-04-07 21:04:00,
2013-04-07 16:10:00,46.3,35.2,29.86,South,190,3.6,6.0,65,0.00,CLR,,0.00,513.0,WeatherDisplay:10.37,2013-04-07 21:10:00,
2013-04-07 16:16:00,46.7,35.9,29.86,South,190,1.4,4.0,66,0.00,CLR,,0.00,552.0,WeatherDisplay:10.37,2013-04-07 21:16:00,
2013-04-07 16:21:00,46.5,35.4,29.85,SE,146,4.7,6.0,65,0.00,CLR,,0.00,519.0,WeatherDisplay:10.37,2013-04-07 21:21:00,
2013-04-07 16:26:00,46.1,35.4,29.85,SSE,159,4.6,8.1,66,0.00,CLR,,0.00,443.0,WeatherDisplay:10.37,2013-04-07 21:26:00,
2013-04-07 16:31:00,45.8,35.1,29.84,SW,214,3.3,6.0,66,0.00,CLR,,0.00,462.0,WeatherDisplay:10.37,2013-04-07 21:31:00,
2013-04-07 16:36:00,46.5,36.1,29.85,SW,221,2.5,9.2,67,0.00,CLR,,0.00,404.0,WeatherDisplay:10.37,2013-04-07 21:36:00,
2013-04-07 16:41:00,46.4,35.7,29.85,SSE,168,1.9,5.0,66,0.00,CLR,,0.00,394.0,WeatherDisplay:10.37,2013-04-07 21:41:00,
2013-04-07 16:46:00,46.2,35.5,29.85,South,183,4.3,6.0,66,0.00,CLR,,0.00,388.0,WeatherDisplay:10.37,2013-04-07 21:46:00,
2013-04-07 16:51:00,46.2,35.8,29.85,East,82,2.5,4.6,67,0.00,CLR,,0.00,244.0,WeatherDisplay:10.37,2013-04-07 21:51:00,
2013-04-07 16:57:00,46.3,35.9,29.85,SSW,205,3.6,8.0,67,0.00,CLR,,0.00,236.0,WeatherDisplay:10.37,2013-04-07 21:57:00,
2013-04-07 17:03:00,46.0,35.7,29.85,SSE,166,5.8,10.0,67,0.00,CLR,,0.00,239.0,WeatherDisplay:10.37,2013-04-07 22:03:00,
2013-04-07 17:08:00,46.0,36.0,29.85,SSW,194,2.2,5.0,68,0.00,CLR,,0.00,232.0,WeatherDisplay:10.37,2013-04-07 22:08:00,
2013-04-07 17:13:00,45.5,35.5,29.85,South,171,5.1,8.0,68,0.00,CLR,,0.00,248.0,WeatherDisplay:10.37,2013-04-07 22:13:00,
2013-04-07 17:18:00,45.5,35.9,29.86,SSW,211,2.9,4.0,69,0.00,CLR,,0.00,241.0,WeatherDisplay:10.37,2013-04-07 22:18:00,
2013-04-07 17:24:00,45.8,36.2,29.86,South,169,2.6,4.0,69,0.00,CLR,,0.00,243.0,WeatherDisplay:10.37,2013-04-07 22:24:00,
2013-04-07 17:30:00,45.8,36.2,29.85,South,182,4.5,6.0,69,0.00,CLR,,0.00,271.0,WeatherDisplay:10.37,2013-04-07 22:30:00,
2013-04-07 17:35:00,45.8,36.2,29.85,South,185,5.0,7.0,69,0.00,CLR,CLR,0.00,257.0,WeatherDisplay:10.37,2013-04-07 22:35:00,
2013-04-07 17:40:00,45.7,36.1,29.85,South,184,3.0,7.0,69,0.00,CLR,CLR,0.00,253.0,WeatherDisplay:10.37,2013-04-07 22:40:00,
2013-04-07 17:45:00,46.0,36.7,29.85,South,186,3.0,8.0,70,0.00,CLR,CLR,0.00,234.0,WeatherDisplay:10.37,2013-04-07 22:45:00,
2013-04-07 17:50:00,46.3,36.7,29.85,South,181,3.0,5.0,69,0.00,CLR,CLR,0.00,290.0,WeatherDisplay:10.37,2013-04-07 22:50:00,
2013-04-07 17:56:00,46.3,36.3,29.86,South,175,3.4,6.9,68,0.00,CLR,,0.00,276.0,WeatherDisplay:10.37,2013-04-07 22:56:00,
2013-04-07 18:01:00,46.0,36.4,29.85,South,171,2.7,5.8,69,0.00,CLR,,0.00,190.0,WeatherDisplay:10.37,2013-04-07 23:01:00,
2013-04-07 18:07:00,45.9,36.7,29.86,SSW,211,1.8,4.0,70,0.00,CLR,,0.00,132.0,WeatherDisplay:10.37,2013-04-07 23:07:00,
2013-04-07 18:13:00,45.4,36.5,29.86,SSW,198,3.7,6.0,71,0.00,CLR,,0.00,104.0,WeatherDisplay:10.37,2013-04-07 23:13:00,
2013-04-07 18:18:00,44.8,36.3,29.86,SSW,198,0.5,3.5,72,0.00,CLR,,0.00,95.0,WeatherDisplay:10.37,2013-04-07 23:18:00,
2013-04-07 18:23:00,44.6,36.5,29.86,SSW,194,0.9,2.3,73,0.00,CLR,,0.00,83.0,WeatherDisplay:10.37,2013-04-07 23:23:00,
2013-04-07 18:28:00,44.6,36.8,29.86,South,191,0.7,2.3,74,0.00,CLR,,0.00,77.0,WeatherDisplay:10.37,2013-04-07 23:28:00,
2013-04-07 18:34:00,44.7,36.9,29.86,South,179,1.7,4.0,74,0.00,CLR,,0.00,69.0,WeatherDisplay:10.37,2013-04-07 23:34:00,
2013-04-07 18:39:00,44.4,36.6,29.85,SSE,151,2.1,4.6,74,0.00,CLR,,0.00,63.0,WeatherDisplay:10.37,2013-04-07 23:39:00,
2013-04-07 18:44:00,44.6,37.2,29.85,SW,214,3.8,7.0,75,0.00,CLR,,0.00,56.0,WeatherDisplay:10.37,2013-04-07 23:44:00,
2013-04-07 18:50:00,44.5,37.1,29.85,SSW,194,2.0,7.0,75,0.00,CLR,,0.00,49.0,WeatherDisplay:10.37,2013-04-07 23:50:00,
2013-04-07 18:55:00,44.4,37.0,29.85,South,182,1.2,3.5,75,0.00,CLR,,0.00,44.0,WeatherDisplay:10.37,2013-04-07 23:55:00,
2013-04-07 19:00:00,44.3,36.9,29.84,South,175,3.0,6.0,75,0.00,CLR,CLR,0.00,35.0,WeatherDisplay:10.37,2013-04-08 00:00:00,
2013-04-07 19:05:00,44.3,36.9,29.85,South,175,2.0,5.0,75,0.00,CLR,CLR,0.00,28.0,WeatherDisplay:10.37,2013-04-08 00:05:00,
2013-04-07 19:10:00,44.2,37.1,29.85,South,178,2.0,5.0,76,0.00,CLR,CLR,0.00,21.0,WeatherDisplay:10.37,2013-04-08 00:10:00,
2013-04-07 19:15:00,44.0,36.9,29.86,South,170,2.0,5.0,76,0.00,CLR,CLR,0.00,16.0,WeatherDisplay:10.37,2013-04-08 00:15:00,
2013-04-07 19:20:00,43.5,36.8,29.86,South,169,1.0,5.0,77,0.00,CLR,CLR,0.00,11.0,WeatherDisplay:10.37,2013-04-08 00:20:00,
2013-04-07 19:25:00,43.3,36.9,29.85,South,179,0.0,3.0,78,0.00,CLR,CLR,0.00,9.0,WeatherDisplay:10.37,2013-04-08 00:25:00,
2013-04-07 19:30:00,43.4,36.7,29.85,South,187,1.0,6.0,77,0.00,CLR,CLR,0.00,5.0,WeatherDisplay:10.37,2013-04-08 00:30:00,
2013-04-07 19:35:00,43.4,37.0,29.85,South,179,2.0,5.0,78,0.00,CLR,CLR,0.00,0.0,WeatherDisplay:10.37,2013-04-08 00:35:00,
2013-04-07 19:41:00,43.4,37.0,29.85,SSW,192,0.1,1.2,78,0.00,CLR,,0.00,0.0,WeatherDisplay:10.37,2013-04-08 00:41:00,
2013-04-07 19:47:00,43.0,36.9,29.85,ESE,111,0.9,3.5,79,0.00,CLR,,0.00,0.0,WeatherDisplay:10.37,2013-04-08 00:47:00,
2013-04-07 19:52:00,43.1,37.3,29.85,SE,132,0.0,1.2,80,0.00,CLR,,0.00,0.0,WeatherDisplay:10.37,2013-04-08 00:52:00,
2013-04-07 19:58:00,43.3,37.5,29.85,South,184,0.2,1.2,80,0.00,CLR,,0.00,0.0,WeatherDisplay:10.37,2013-04-08 00:58:00,
2013-04-07 20:03:00,43.2,37.4,29.84,SE,139,1.5,4.0,80,0.00,BKN,,0.00,0.0,WeatherDisplay:10.37,2013-04-08 01:03:00,
2013-04-07 20:08:00,43.1,37.3,29.84,SSE,155,1.2,3.0,80,0.00,BKN,,0.00,0.0,WeatherDisplay:10.37,2013-04-08 01:08:00,
2013-04-07 20:13:00,43.1,37.7,29.84,SSE,150,1.0,3.5,81,0.00,BKN,,0.00,0.0,WeatherDisplay:10.37,2013-04-08 01:13:00,
2013-04-07 20:18:00,43.0,38.2,29.84,SSE,154,0.2,1.0,83,0.00,BKN,,0.00,0.0,WeatherDisplay:10.37,2013-04-08 01:18:00,
2013-04-07 20:23:00,42.8,38.6,29.84,SSE,154,0.0,1.2,85,0.00,BKN,,0.00,0.0,WeatherDisplay:10.37,2013-04-08 01:23:00,
2013-04-07 20:28:00,42.6,39.0,29.83,SSE,154,0.0,0.0,87,0.00,BKN,,0.00,0.0,WeatherDisplay:10.37,2013-04-08 01:28:00,
2013-04-07 20:33:00,42.3,38.7,29.83,SSE,154,0.1,1.2,87,0.01,RA,,0.01,0.0,WeatherDisplay:10.37,2013-04-08 01:33:00,
2013-04-07 20:38:00,42.2,38.9,29.83,SSE,154,0.1,1.0,88,0.01,RA,,0.01,0.0,WeatherDisplay:10.37,2013-04-08 01:38:00,
2013-04-07 20:44:00,41.9,39.2,29.83,SSE,154,0.0,0.0,90,0.01,BKN,,0.01,0.0,WeatherDisplay:10.37,2013-04-08 01:44:00,
2013-04-07 20:50:00,41.9,39.5,29.83,SSE,154,0.0,0.0,91,0.01,BKN,,0.01,0.0,WeatherDisplay:10.37,2013-04-08 01:50:00,
2013-04-07 20:55:00,41.6,39.2,29.83,SSE,154,0.0,0.0,91,0.00,RA,RA,0.02,0.0,WeatherDisplay:10.37,2013-04-08 01:55:00,
2013-04-07 21:00:00,41.7,39.3,29.83,SSE,154,0.0,1.0,91,0.00,RA,RA,0.02,0.0,WeatherDisplay:10.37,2013-04-08 02:00:00,
2013-04-07 21:05:00,41.6,39.2,29.83,SSE,152,0.0,1.0,91,0.00,-RA,-RA,0.02,0.0,WeatherDisplay:10.37,2013-04-08 02:05:00,
2013-04-07 21:10:00,41.6,39.2,29.83,SE,144,0.0,1.0,91,0.00,-RA,-RA,0.03,0.0,WeatherDisplay:10.37,2013-04-08 02:10:00,
2013-04-07 21:15:00,41.5,39.0,29.83,SE,140,0.0,2.0,91,0.00,-RA,-RA,0.03,0.0,WeatherDisplay:10.37,2013-04-08 02:15:00,
2013-04-07 21:20:00,41.4,39.3,29.83,SE,136,0.0,1.0,92,0.00,-RA,-RA,0.03,0.0,WeatherDisplay:10.37,2013-04-08 02:20:00,
2013-04-07 21:25:00,41.4,39.3,29.83,SE,131,0.0,2.0,92,0.00,-RA,-RA,0.03,0.0,WeatherDisplay:10.37,2013-04-08 02:25:00,
2013-04-07 21:30:00,41.3,39.1,29.83,SE,130,0.0,2.0,92,0.00,-RA,-RA,0.03,0.0,WeatherDisplay:10.37,2013-04-08 02:30:00,
2013-04-07 21:35:00,41.2,39.3,29.83,SE,130,0.0,0.0,93,0.00,-RA,-RA,0.04,0.0,WeatherDisplay:10.37,2013-04-08 02:35:00,
2013-04-07 21:40:00,41.0,39.2,29.83,SE,131,0.0,2.0,93,0.00,-RA,-RA,0.04,0.0,WeatherDisplay:10.37,2013-04-08 02:40:00,
2013-04-07 21:46:00,41.1,39.5,29.83,SE,132,0.0,0.0,94,0.03,-RA,,0.04,0.0,WeatherDisplay:10.37,2013-04-08 02:46:00,
2013-04-07 21:51:00,41.2,39.6,29.83,SE,132,0.0,0.0,94,0.04,-RA,,0.05,0.0,WeatherDisplay:10.37,2013-04-08 02:51:00,
2013-04-07 21:56:00,41.0,39.4,29.83,SE,132,0.0,0.0,94,0.03,-RA,,0.05,0.0,WeatherDisplay:10.37,2013-04-08 02:56:00,
2013-04-07 22:01:00,41.1,39.5,29.83,SE,143,0.0,0.0,94,0.04,-RA,,0.06,0.0,WeatherDisplay:10.37,2013-04-08 03:01:00,
2013-04-07 22:06:00,41.0,39.4,29.84,SSE,150,0.1,1.2,94,0.05,-RA,,0.07,0.0,WeatherDisplay:10.37,2013-04-08 03:06:00,
2013-04-07 22:12:00,40.9,39.6,29.84,SSE,150,0.0,0.0,95,0.05,-RA,,0.09,0.0,WeatherDisplay:10.37,2013-04-08 03:12:00,
2013-04-07 22:18:00,40.8,39.5,29.84,SSE,150,0.0,0.0,95,0.07,-RA,,0.10,0.0,WeatherDisplay:10.37,2013-04-08 03:18:00,
2013-04-07 22:23:00,40.8,39.5,29.84,SSE,150,0.0,0.0,95,0.09,-RA,,0.12,0.0,WeatherDisplay:10.37,2013-04-08 03:23:00,
2013-04-07 22:29:00,40.5,39.2,29.84,SSE,150,0.1,2.3,95,0.10,-RA,,0.13,0.0,WeatherDisplay:10.37,2013-04-08 03:29:00,
2013-04-07 22:34:00,40.5,39.2,29.83,SSE,150,0.0,0.0,95,0.11,-RA,,0.14,0.0,WeatherDisplay:10.37,2013-04-08 03:34:00,
2013-04-07 22:39:00,40.6,39.5,29.83,SSE,150,0.0,0.0,96,0.12,-RA,,0.16,0.0,WeatherDisplay:10.37,2013-04-08 03:39:00,
2013-04-07 22:44:00,40.4,39.1,29.83,SSE,153,0.2,1.2,95,0.13,-RA,,0.17,0.0,WeatherDisplay:10.37,2013-04-08 03:44:00,
2013-04-07 22:49:00,40.3,39.3,29.83,SE,126,0.2,2.3,96,0.13,-RA,,0.18,0.0,WeatherDisplay:10.37,2013-04-08 03:49:00,
2013-04-07 22:55:00,40.3,39.3,29.83,ESE,117,0.2,1.2,96,0.14,-RA,,0.19,0.0,WeatherDisplay:10.37,2013-04-08 03:55:00,
2013-04-07 23:00:00,40.2,39.2,29.82,ESE,115,0.5,2.3,96,0.13,-RA,,0.19,0.0,WeatherDisplay:10.37,2013-04-08 04:00:00,
2013-04-07 23:03:00,40.1,39.1,29.82,SSE,168,1.0,4.0,96,0.13,-RA,,0.20,0.0,WeatherDisplay:10.37,2013-04-08 04:03:00,
2013-04-07 23:06:00,40.1,39.1,29.82,SSE,157,1.6,4.6,96,0.13,-RA,,0.20,0.0,WeatherDisplay:10.37,2013-04-08 04:06:00,
2013-04-07 23:11:00,40.1,39.1,29.82,ESE,104,2.1,4.0,96,0.12,-RA,,0.20,0.0,WeatherDisplay:10.37,2013-04-08 04:11:00,
2013-04-07 23:15:00,40.0,39.0,29.82,ENE,60,1.0,2.0,96,0.00,-RA,-RA,0.20,0.0,WeatherDisplay:10.37,2013-04-08 04:15:00,
2013-04-07 23:20:00,40.1,39.0,29.81,ESE,102,0.0,2.0,96,0.00,-RA,-RA,0.21,0.0,WeatherDisplay:10.37,2013-04-08 04:20:00,
2013-04-07 23:25:00,40.0,39.0,29.81,ESE,114,0.0,3.0,96,0.00,-RA,-RA,0.21,0.0,WeatherDisplay:10.37,2013-04-08 04:25:00,
2013-04-07 23:30:00,40.0,39.0,29.80,ESE,115,0.0,3.0,96,0.00,-RA,-RA,0.21,0.0,WeatherDisplay:10.37,2013-04-08 04:30:00,
2013-04-07 23:35:00,40.0,39.0,29.80,SE,130,1.0,5.0,96,0.00,-RA,-RA,0.21,0.0,WeatherDisplay:10.37,2013-04-08 04:35:00,
2013-04-07 23:40:00,40.0,39.0,29.80,East,96,1.0,3.0,96,0.00,-RA,-RA,0.21,0.0,WeatherDisplay:10.37,2013-04-08 04:40:00,
2013-04-07 23:45:00,40.0,38.9,29.80,East,89,2.0,5.0,96,0.00,-RA,-RA,0.21,0.0,WeatherDisplay:10.37,2013-04-08 04:45:00,
2013-04-07 23:50:00,40.0,39.0,29.80,East,85,0.0,4.0,96,0.00,-RA,-RA,0.21,0.0,WeatherDisplay:10.37,2013-04-08 04:50:00,
2013-04-07 23:55:00,39.8,38.8,29.79,NE,42,0.0,4.0,96,0.00,-RA,-RA,0.21,0.0,WeatherDisplay:10.37,2013-04-08 04:55:00,